Weather History for Rockingham, NC

Change the Weather History Date:

Tuesday, January 22, 2013

  Actual Average (KHFF) Record (KHFF)
Temperature  
Mean Temperature 36 °F -  
Max Temperature 44 °F 51 °F 71 °F (1999)
Min Temperature 29 °F 28 °F 17 °F (2009)
Degree Days  
Heating Degree Days 28    
Moisture  
Dew Point 14 °F    
Average Humidity 39    
Maximum Humidity 63    
Minimum Humidity 22    
Precipitation  
Precipitation 0.00 in - - ()
Sea Level Pressure  
Sea Level Pressure 30.16 in    
Wind  
Wind Speed 5 mph (NW)    
Max Wind Speed 13 mph    
Max Gust Speed 18 mph    
Visibility 10 miles    
Events      
Averages and records for this station are not official NWS values.
T = Trace of Precipitation, MM = Missing Value Source: NWS Daily Summary

Daily Weather History Graph

Daily Weather History Graph

Search for Another Location

Airport:

Trip Planner

Search our weather history database for the weather conditions in past years. The results will help you decide how hot, cold, wet, or windy it might be!

Date:

Astronomy

Jan. 22, 2013 Rise Set
Actual Time 7:23 AM EST 5:38 PM EST
Civil Twilight 6:56 AM EST 6:05 PM EST
Nautical Twilight 6:25 AM EST 6:35 PM EST
Astronomical Twilight 5:55 AM EST 7:06 PM EST
Moon 2:01 PM EST (1/22) 3:42 AM EST (1/22)
Length of Visible Light 11h 08m
Length of Day
10h 14m
Waxing Gibbous, 82% of the Moon is Illuminated
Jan 22
Waxing Gibbous
Jan 26
Full
Feb 3
Last Quarter
Feb 10
New
Feb 17
First Quarter

Hourly Weather History & Observations

Time (EST) Temp. Windchill Dew Point Humidity Pressure Visibility Wind Dir Wind Speed Gust Speed Precip Events Conditions
12:15 AM 43.7 °F 41.1 °F 21.9 °F 42% 30.00 in 10.0 mi West 4.6 mph - N/A   Clear
12:35 AM 42.3 °F 40.5 °F 22.3 °F 45% 30.00 in 10.0 mi West 3.5 mph - N/A   Clear
12:55 AM 41.9 °F 40.0 °F 21.7 °F 45% 30.00 in 10.0 mi West 3.5 mph - N/A   Clear
1:15 AM 40.8 °F 37.8 °F 21.7 °F 47% 30.00 in 10.0 mi WNW 4.6 mph - N/A   Clear
1:35 AM 43.0 °F 40.3 °F 20.8 °F 41% 30.00 in 10.0 mi WNW 4.6 mph - N/A   Clear
1:55 AM 41.7 °F 39.8 °F 21.0 °F 44% 30.01 in 10.0 mi West 3.5 mph - N/A   Clear
2:15 AM 39.0 °F 35.7 °F 21.6 °F 50% 30.02 in 10.0 mi West 4.6 mph - N/A   Clear
2:55 AM 38.8 °F 35.4 °F 22.1 °F 51% 30.03 in 10.0 mi WNW 4.6 mph - N/A   Clear
3:15 AM 39.7 °F 35.6 °F 20.8 °F 47% 30.03 in 10.0 mi WNW 5.8 mph - N/A   Clear
3:35 AM 37.9 °F 32.7 °F 21.4 °F 51% 30.03 in 10.0 mi WNW 6.9 mph - N/A   Clear
3:55 AM 39.2 °F 35.0 °F 20.1 °F 46% 30.03 in 10.0 mi NW 5.8 mph - N/A   Clear
4:15 AM 38.5 °F 34.1 °F 20.3 °F 48% 30.03 in 10.0 mi WNW 5.8 mph - N/A   Clear
4:35 AM 38.8 °F 33.8 °F 19.0 °F 45% 30.04 in 10.0 mi NW 6.9 mph - N/A   Clear
4:55 AM 37.9 °F 34.4 °F 19.4 °F 47% 30.05 in 10.0 mi NW 4.6 mph - N/A   Clear
5:15 AM 37.0 °F 33.3 °F 19.4 °F 49% 30.06 in 10.0 mi NW 4.6 mph - N/A   Clear
5:35 AM 37.0 °F 31.6 °F 18.0 °F 46% 30.08 in 10.0 mi NW 6.9 mph - N/A   Clear
5:55 AM 36.7 °F 32.0 °F 17.6 °F 46% 30.09 in 10.0 mi NNW 5.8 mph - N/A   Clear
6:15 AM 35.6 °F 31.7 °F 18.1 °F 49% 30.10 in 10.0 mi NNW 4.6 mph - N/A   Clear
6:35 AM 34.7 °F 30.6 °F 18.1 °F 51% 30.12 in 10.0 mi NNW 4.6 mph - N/A   Clear
6:55 AM 34.3 °F 29.2 °F 15.6 °F 46% 30.14 in 10.0 mi North 5.8 mph - N/A   Clear
7:15 AM 34.2 °F 27.5 °F 13.6 °F 43% 30.15 in 10.0 mi North 8.1 mph - N/A   Clear
7:35 AM 33.8 °F 28.6 °F 12.7 °F 42% 30.15 in 10.0 mi North 5.8 mph - N/A   Clear
7:55 AM 33.8 °F 28.6 °F 12.9 °F 42% 30.16 in 10.0 mi North 5.8 mph - N/A   Clear
8:15 AM 34.7 °F 29.6 °F 11.3 °F 38% 30.16 in 10.0 mi North 5.8 mph - N/A   Clear
8:35 AM 35.4 °F 29.7 °F 10.4 °F 36% 30.17 in 10.0 mi North 6.9 mph - N/A   Clear
8:55 AM 36.0 °F 30.3 °F 10.2 °F 34% 30.19 in 10.0 mi North 6.9 mph - N/A   Clear
9:15 AM 36.5 °F 30.3 °F 9.1 °F 32% 30.21 in 10.0 mi North 8.1 mph - N/A   Clear
9:35 AM 37.0 °F 31.0 °F 8.8 °F 31% 30.21 in 10.0 mi NNW 8.1 mph - N/A   Clear
9:55 AM 37.2 °F 30.6 °F 8.2 °F 30% 30.22 in 10.0 mi North 9.2 mph - N/A   Clear
10:15 AM 38.3 °F 32.5 °F 8.8 °F 30% 30.22 in 10.0 mi North 8.1 mph - N/A   Clear
10:35 AM 38.5 °F 30.7 °F 8.6 °F 29% 30.22 in 10.0 mi North 12.7 mph 16.1 mph N/A   Clear
10:55 AM 39.0 °F 31.8 °F 9.1 °F 29% 30.23 in 10.0 mi NNW 11.5 mph - N/A   Clear
11:15 AM 39.4 °F 34.5 °F 9.3 °F 29% 30.23 in 10.0 mi NW 6.9 mph - N/A   Clear
11:35 AM 40.3 °F 34.9 °F 9.3 °F 28% 30.22 in 10.0 mi North 8.1 mph - N/A   Clear
11:55 AM 41.0 °F 35.8 °F 9.7 °F 28% 30.21 in 10.0 mi WNW 8.1 mph - N/A   Clear
12:15 PM 41.2 °F 35.0 °F 8.4 °F 26% 30.20 in 10.0 mi NNW 10.4 mph - N/A   Clear
12:35 PM 42.3 °F 38.6 °F 8.6 °F 25% 30.19 in 10.0 mi NW 5.8 mph 18.4 mph N/A   Clear
12:55 PM 42.6 °F 35.9 °F 8.4 °F 25% 30.19 in 10.0 mi WNW 12.7 mph 18.4 mph N/A   Clear
1:15 PM 43.0 °F 37.7 °F 9.3 °F 25% 30.18 in 10.0 mi NW 9.2 mph - N/A   Clear
1:35 PM 43.5 °F 38.9 °F 7.5 °F 23% 30.18 in 10.0 mi NW 8.1 mph - N/A   Clear
1:55 PM 43.2 °F 39.0 °F 7.7 °F 23% 30.18 in 10.0 mi North 6.9 mph - N/A   Clear
2:15 PM 43.9 °F 40.5 °F 8.2 °F 23% 30.17 in 10.0 mi North 5.8 mph - N/A   Clear
2:35 PM 43.9 °F 39.3 °F 8.1 °F 23% 30.17 in 10.0 mi NNW 8.1 mph - N/A   Clear
2:55 PM 44.2 °F 42.7 °F 6.8 °F 22% 30.17 in 10.0 mi WNW 3.5 mph - N/A   Clear
3:15 PM 44.1 °F 38.6 °F 8.4 °F 23% 30.18 in 10.0 mi WSW 10.4 mph - N/A   Clear
3:35 PM 44.4 °F 38.6 °F 8.1 °F 23% 30.18 in 10.0 mi West 11.5 mph 16.1 mph N/A   Clear
3:55 PM 44.8 °F 40.4 °F 8.4 °F 23% 30.19 in 10.0 mi NW 8.1 mph - N/A   Clear
4:15 PM 44.2 °F 39.2 °F 10.2 °F 25% 30.19 in 10.0 mi West 9.2 mph - N/A   Clear
4:35 PM 43.7 °F 39.1 °F 9.7 °F 25% 30.18 in 10.0 mi NW 8.1 mph - N/A   Clear
4:55 PM 43.0 °F 39.5 °F 8.2 °F 24% 30.19 in 10.0 mi WNW 5.8 mph - N/A   Clear
5:15 PM 42.6 °F 39.9 °F 10.0 °F 26% 30.20 in 10.0 mi NW 4.6 mph - N/A   Clear
5:35 PM 41.2 °F - 9.0 °F 27% 30.19 in 10.0 mi Calm Calm - N/A   Clear
5:55 PM 40.6 °F - 9.1 °F 27% 30.19 in 10.0 mi Calm Calm - N/A   Clear
6:15 PM 36.7 °F - 18.7 °F 48% 30.20 in 10.0 mi Calm Calm - N/A   Clear
6:35 PM 36.5 °F - 15.3 °F 42% 30.21 in 10.0 mi Calm Calm - N/A   Clear
6:55 PM 36.3 °F - 14.9 °F 42% 30.21 in 10.0 mi Calm Calm - N/A   Clear
7:15 PM 36.1 °F - 15.4 °F 43% 30.22 in 10.0 mi Calm Calm - N/A   Clear
7:35 PM 35.8 °F - 17.2 °F 47% 30.22 in 10.0 mi Calm Calm - N/A   Clear
7:55 PM 32.2 °F - 15.6 °F 51% 30.22 in 10.0 mi Calm Calm - N/A   Clear
8:15 PM 32.0 °F - 15.6 °F 51% 30.22 in 10.0 mi Calm Calm - N/A   Clear
8:35 PM 32.9 °F - 16.0 °F 50% 30.22 in 10.0 mi Calm Calm - N/A   Clear
8:55 PM 31.8 °F - 16.2 °F 52% 30.22 in 10.0 mi Calm Calm - N/A   Clear
9:15 PM 30.9 °F - 16.0 °F 54% 30.23 in 10.0 mi Calm Calm - N/A   Clear
9:35 PM 31.1 °F - 15.8 °F 53% 30.23 in 10.0 mi Calm Calm - N/A   Clear
9:55 PM 30.2 °F - 17.6 °F 60% 30.23 in 10.0 mi Calm Calm - N/A   Clear
10:15 PM 30.2 °F - 15.8 °F 55% 30.25 in 10.0 mi Calm Calm - N/A   Clear
10:35 PM 29.8 °F 26.3 °F 18.7 °F 63% 30.26 in 10.0 mi North 3.5 mph - N/A   Clear
10:55 PM 30.2 °F 25.4 °F 15.1 °F 53% 30.27 in 10.0 mi North 4.6 mph - N/A   Clear
11:15 PM 30.2 °F - 13.1 °F 49% 30.27 in 10.0 mi Calm Calm - N/A   Clear
11:55 PM 29.3 °F 25.6 °F 11.5 °F 47% 30.26 in 10.0 mi North 3.5 mph - N/A   Clear